Regional Weather Roundup
Issued by NWS Upton, NY

Current Version | Previous Version | Text Only | Print | Product List | Glossary Off
Versions: 1 2 3 4 5 6 7 8 9 10 11 12 13 14 15 16 17 18 19 20 21 22 23 24 25 26 27 28 29 30 31 32 33 34 35 36 37 38 39 40 41 42 43 44 45 46 47 48 49 50
000 ASUS41 KOKX 241909 RWROKX REGIONAL WEATHER ROUNDUP NATIONAL WEATHER SERVICE NEW YORK NY 300 PM EDT WED MAY 24 2017 NOTE: "FAIR" INDICATES FEW OR NO CLOUDS BELOW 12,000 FEET WITH NO SIGNIFICANT WEATHER AND/OR OBSTRUCTIONS TO VISIBILITY. NYZ071-072-176-178-NJZ106-104-242000- NEW YORK CITY METRO AREA CITY SKY/WX TMP DP RH WIND PRES REMARKS Central Park CLOUDY 67 47 48 E10G18 29.78S Wall St Helipt CLOUDY 70 48 46 VRB6 29.76R Bronx Bot Gard N/A 66 45 45 NE10 29.78S LaGuardia APRT PTSUNNY 67 47 48 NE13 29.75S Kennedy INTL CLOUDY 68 52 56 E6 29.76R Breezy Point N/A 61 N/A N/A S8 N/A Newark/Liberty PTSUNNY 69 49 48 E7G17 29.75S Teterboro CLOUDY 69 49 48 E12G17 29.74S $$ NYZ177-179-078>081-242000- LONG ISLAND NEW YORK CITY SKY/WX TMP DP RH WIND PRES REMARKS Jones Beach N/A 61 N/A N/A SE8 N/A Matinecock PT N/A 61 N/A N/A E12 N/A Farmingdale CLOUDY 67 51 56 E12G18 29.74S MacArthur/ISP CLOUDY 68 49 50 E16G22 29.74S Shirley CLOUDY 66 50 56 VRB6G18 29.75F Mt Sinai Harb N/A N/A N/A N/A E8 N/A Westhampton CLOUDY 64 50 60 E10 29.77S East Hampton CLOUDY 63 48 59 E12G21 29.76R Montauk N/A 60 52 74 E8 29.77S $$ NYZ052-065-067-242000- HUDSON VALLEY CITY SKY/WX TMP DP RH WIND PRES REMARKS White Plains PTSUNNY 66 52 60 SE9 29.75S Larchmont Harb N/A 61 N/A N/A NE13 N/A Croton O-T Hud N/A 72 N/A N/A E1 N/A Newburgh PTSUNNY 72 52 49 E12 29.76S Montgomery CLOUDY 71 50 47 VRB3 29.74S Poughkeepsie MOSUNNY 72 48 42 VRB5 29.73S Albany PTSUNNY 74 50 42 VRB3 29.74F $$ NJZ001-105-106-008-010-013-015-019>022-104-242000- NEW JERSEY CITY SKY/WX TMP DP RH WIND PRES REMARKS Newark/Liberty PTSUNNY 69 49 48 E7G17 29.75S Teterboro CLOUDY 69 49 48 E12G17 29.74S Caldwell CLOUDY 72 48 42 E13 29.76R Somerville CLOUDY 71 54 54 VRB6 29.74R Linden CLOUDY 68 49 50 E8 29.78R Perth Amboy N/A 63 N/A N/A SE9 N/A Sussex PTSUNNY 73 52 47 E9 29.75R Andover N/A 71 48 43 MISG 29.74S Trenton CLOUDY 69 53 56 E12 29.75R Millville CLOUDY 68 55 63 E10 29.75R Atlantic City CLOUDY 67 52 58 E15G22 29.76 Wrightstown CLOUDY 67 51 57 NE12 29.74R Toms River CLOUDY 65 49 56 NE10G17 29.77R Belmar CLOUDY 63 54 72 NE7 29.78R $$ PAZ047>061-062-071-242000- EASTERN PENNSYLVANIA CITY SKY/WX TMP DP RH WIND PRES REMARKS Philadelphia CLOUDY 71 53 52 E8 29.76R Allentown CLOUDY 72 50 45 SE9 29.76R Scranton PTSUNNY 72 47 40 SE8 29.71S $$ CTZ002-004>006-009-010-012-RIZ004-006-007-MAZ004-011-015-242000- SOUTHERN NEW ENGLAND IN CT CITY SKY/WX TMP DP RH WIND PRES REMARKS Bradley INTL MOSUNNY 72 48 42 NE10 29.74F Hartford MOSUNNY 69 52 54 MISG 29.74F Danbury CLOUDY 67 50 54 SE8 29.77S Wtrbury/Oxford PTSUNNY 66 48 52 E7 29.77F Bridgeport PTSUNNY 64 53 67 E10 29.77R Meriden PTSUNNY 69 52 54 NE7 29.75F New Haven MOSUNNY 63 51 65 SE13 29.76S Chester N/A 68 52 56 E8G15 29.75F Groton CLOUDY 62 52 69 E16 29.74F Wilimantic CLOUDY 71 52 50 E10 29.75F IN RI CITY SKY/WX TMP DP RH WIND PRES REMARKS Providence PTSUNNY 69 51 52 NE15 29.76F Block Island CLOUDY 58 52 80 NE12G20 29.75F Westerly PTSUNNY 66 52 60 SE10 29.75F IN MA CITY SKY/WX TMP DP RH WIND PRES REMARKS Boston CLOUDY 63 52 67 E7 29.81F Worcester CLOUDY 65 46 50 E9 29.79F Westfield CLOUDY 72 50 45 SE5 29.75F Provincetown CLOUDY 61 51 70 NE12 29.81S Nantucket CLOUDY 57 50 77 NE16 29.78R $$ ANZ330-335-338-340-345-350-353-355-242000- COASTAL MARINE OBSERVATIONS STATION/POSITION TIME SKY/WX TEMP WIND PRES VSBY WAVE AIR SEA DIR/SP/G HT/PER (UTC) (F) (DEG/KT/KT) (MB) (MI) (FT/S) NY HARB ENTRANCE 1750 58 58 70/ 12/ 14 1007.3 3/ 7 20 S FIRE ISLAND 1850 56 55 60/ 16/ 19 1006.9 5/ 6 GREAT SOUTH BAY 1815 59 65 110/ 14/ 16 N/A 23 SSW MONTAUK P 1750 54 55 1007.1 4/ 7 15 E BARNEGAT LI 1830 58 N/A 5/ 7 HUDSON CANYON 1750 53 53 50/ 17/ 19 1005.4 7/ 7 KINGS POINT 1842 66 57 80/ 6/ 10 1007.2 EXECUTION ROCKS 1845 63 N/A CENTRAL LI SOUND 1830 58 100/ 8/ 10 N/A 0 EASTERN LI SOUND NOT AVBL ROBBINS REEF 1842 65 150/ 6/ 8 1007.8 $$ >>>>>>>>>>>>>>>>>>>>>>>>>>>> KEY <<<<<<<<<<<<<<<<<<<<<<<<<<< > < > SKY/WX - Sky Condition/Present Weather < > TMP - Temperature in Fahrenheit < > DP - Dew Point in Fahrenheit < > RH - Relative Humidity in Percent < > WIND - Direction (from) and Speed in MPH < > PRES - Mean Sea Level Pressure (inches of Hg) < > WCI - Wind Chill Index < > VSB - VISIBILITY IN MILES < > HX - HEAT INDEX < > TC - TEMPERATURE IN CELSIUS < > VRB - VARIABLE WIND DIRECTION < > < >>>>>>>>>>>>>>>>>>>>>>>>>>>> KEY <<<<<<<<<<<<<<<<<<<<<<<<<<<

USA.gov is the U.S. government's official web portal to all federal, state and local government web resources and services.